Volver al catálogo

STARLINK-31011

ActivoComunicacionesVLEO
NORAD 58517·PAYLOAD·🇺🇸 United States

Lanzado Dec 7, 2023 desde Cape Canaveral Space Force Station

Loading…

Próximos Pases (próximas 24 horas)

TLE

ActualizadoSource: CelesTrak SupGP

Época: Sep 14, 2026, 22:26 UTC

1 58517C 23191K   26257.93520833  .00010093  00000+0  36564-3 0  2573
2 58517  42.9993 114.2948 0001413 271.2835 265.0161 15.27567641    16

Sigue STARLINK-31011 en tiempo real con AllMySat

Download on the App Store